Weather History for Fort Yukon, AK

Change the Weather History Date:

Sunday, November 24, 2013

  Actual Average Record
Temperature  
Mean Temperature -8 °F -  
Max Temperature 3 °F 0 °F 26 °F (2007)
Min Temperature -18 °F -9 °F -41 °F (2006)
Degree Days  
Heating Degree Days 72    
Moisture  
Dew Point -14 °F    
Average Humidity 72    
Maximum Humidity 100    
Minimum Humidity 35    
Precipitation  
Precipitation 0.00 in - - ()
Sea Level Pressure  
Sea Level Pressure 30.04 in    
Wind  
Wind Speed 1 mph (NE)    
Max Wind Speed 5 mph    
Max Gust Speed -    
Visibility 9 miles    
Events      
Averages and records for this station are not official NWS values.
T = Trace of Precipitation, MM = Missing Value Source: NWS Daily Summary

Daily Weather History Graph

Daily Weather History Graph

Search for Another Location

Airport:

Trip Planner

Search our weather history database for the weather conditions in past years. The results will help you decide how hot, cold, wet, or windy it might be!

Date:

Astronomy

Nov. 24, 2013 Rise Set
Actual Time 10:13 AM AKST 2:41 PM AKST
Civil Twilight 8:52 AM AKST 4:02 PM AKST
Nautical Twilight 7:40 AM AKST 5:14 PM AKST
Astronomical Twilight 6:36 AM AKST 6:18 PM AKST
Moon 11:05 PM AKST (11/24) 1:25 PM AKST (11/24)
Length of Visible Light 7h 10m
Length of Day
4h 28m
Waning Gibbous, 59% of the Moon is Illuminated
Nov 24
Waning Gibbous
Nov 25
Last Quarter
Dec 2
New
Dec 9
First Quarter
Dec 17
Full

Hourly Weather History & Observations

Time (AKST) Temp. Windchill Dew Point Humidity Pressure Visibility Wind Dir Wind Speed Gust Speed Precip Events Conditions
12:16 AM -11.2 °F - -18.4 °F 70% 29.95 in 3.0 mi Calm Calm - N/A   Clear
12:36 AM -14.8 °F - -27.4 °F 53% 29.95 in 5.0 mi Calm Calm - N/A   Clear
12:56 AM -11.2 °F - -16.6 °F 77% 29.96 in 3.0 mi Calm Calm - N/A   Clear
1:16 AM -13.0 °F - -18.4 °F 77% 29.96 in 9.0 mi Calm Calm - N/A   Clear
1:36 AM -11.2 °F - -23.8 °F 54% 29.96 in 10.0 mi Calm Calm - N/A   Clear
1:56 AM -14.8 °F - -25.6 °F 58% 29.96 in 10.0 mi Calm Calm - N/A   Clear
2:16 AM -14.8 °F - -23.8 °F 64% 29.97 in 10.0 mi Calm Calm - N/A   Clear
2:36 AM -16.6 °F - -25.6 °F 64% 29.97 in 6.0 mi Calm Calm - N/A   Clear
3:16 AM -16.6 °F - -25.6 °F 64% 29.98 in 10.0 mi Calm Calm - N/A   Clear
3:36 AM -16.6 °F - -23.8 °F 70% 29.99 in 10.0 mi Calm Calm - N/A   Clear
3:56 AM -11.2 °F - -11.2 °F 100% 29.98 in 10.0 mi Calm Calm - N/A   Clear
4:16 AM -11.2 °F -20.6 °F -27.4 °F 45% 30.00 in 10.0 mi NE 3.5 mph - N/A   Clear
4:36 AM -9.4 °F -20.9 °F -16.6 °F 71% 29.99 in 10.0 mi NNE 4.6 mph - N/A   Clear
4:56 AM -11.2 °F - -20.2 °F 64% 30.00 in 10.0 mi Calm Calm - N/A   Clear
5:16 AM -11.2 °F -23.0 °F -20.2 °F 64% 30.01 in 10.0 mi NE 4.6 mph - N/A   Clear
5:36 AM -11.2 °F -23.0 °F -18.4 °F 70% 30.01 in 10.0 mi NE 4.6 mph - N/A   Clear
5:56 AM -9.4 °F - -14.8 °F 77% 30.02 in 10.0 mi Calm Calm - N/A   Clear
6:16 AM -11.2 °F -20.6 °F -20.2 °F 64% 30.02 in 10.0 mi NNE 3.5 mph - N/A   Clear
6:36 AM -13.0 °F - -18.4 °F 77% 30.03 in 10.0 mi Calm Calm - N/A   Clear
7:16 AM -11.2 °F - -20.2 °F 64% 30.04 in 10.0 mi Calm Calm - N/A   Partly Cloudy
7:36 AM -14.8 °F - -27.4 °F 53% 30.04 in 10.0 mi Calm Calm - N/A   Clear
7:56 AM -16.6 °F - -25.6 °F 64% 30.04 in 10.0 mi Calm Calm - N/A   Clear
8:16 AM -14.8 °F - -20.2 °F 77% 30.04 in 10.0 mi Calm Calm - N/A   Clear
8:36 AM -14.8 °F - -20.2 °F 77% 30.04 in 10.0 mi Calm Calm - N/A   Clear
8:56 AM -13.0 °F -25.1 °F -25.6 °F 53% 30.05 in 10.0 mi ENE 4.6 mph - N/A   Clear
9:16 AM -16.6 °F - -23.8 °F 70% 30.06 in 10.0 mi Calm Calm - N/A   Clear
9:36 AM -13.0 °F - -18.4 °F 77% 30.07 in 10.0 mi Calm Calm - N/A   Clear
9:56 AM -18.4 °F - -25.6 °F 70% 30.07 in 10.0 mi Calm Calm - N/A   Clear
10:16 AM -16.6 °F - -27.4 °F 58% 30.07 in 10.0 mi Calm Calm - N/A   Clear
10:56 AM -14.8 °F -24.8 °F -23.8 °F 64% 30.07 in 10.0 mi ENE 3.5 mph - N/A   Clear
11:16 AM -13.0 °F - -18.4 °F 77% 30.07 in 10.0 mi Calm Calm - N/A   Clear
11:36 AM -11.2 °F - -18.4 °F 70% 30.08 in 10.0 mi Calm Calm - N/A   Partly Cloudy
11:56 AM -9.4 °F - -14.8 °F 77% 30.08 in 10.0 mi Calm Calm - N/A   Partly Cloudy
12:16 PM -7.6 °F -16.5 °F -14.8 °F 71% 30.07 in 10.0 mi ENE 3.5 mph - N/A   Clear
12:36 PM -7.6 °F - -11.2 °F 84% 30.07 in 10.0 mi Calm Calm - N/A   Partly Cloudy
12:56 PM -7.6 °F - -14.8 °F 71% 30.07 in 10.0 mi Calm Calm - N/A   Partly Cloudy
1:16 PM -7.6 °F - -14.8 °F 71% 30.08 in 10.0 mi Calm Calm - N/A   Clear
1:36 PM -7.6 °F - -14.8 °F 71% 30.08 in 10.0 mi Calm Calm - N/A   Partly Cloudy
1:56 PM -7.6 °F - -14.8 °F 71% 30.08 in 10.0 mi Calm Calm - N/A   Scattered Clouds
2:16 PM -5.8 °F - -11.2 °F 77% 30.07 in 10.0 mi Calm Calm - N/A   Scattered Clouds
2:36 PM -7.6 °F - -14.8 °F 71% 30.07 in 10.0 mi Calm Calm - N/A   Scattered Clouds
2:56 PM -5.8 °F -16.7 °F -11.2 °F 77% 30.07 in 10.0 mi NE 4.6 mph - N/A   Partly Cloudy
3:16 PM -5.8 °F -16.7 °F -13.0 °F 71% 30.06 in 10.0 mi NE 4.6 mph - N/A   Partly Cloudy
3:36 PM -5.8 °F -14.5 °F -13.0 °F 71% 30.06 in 10.0 mi ENE 3.5 mph - N/A   Partly Cloudy
3:56 PM -5.8 °F -14.5 °F -11.2 °F 77% 30.06 in 10.0 mi NE 3.5 mph - N/A   Partly Cloudy
4:16 PM -5.8 °F -16.7 °F -9.4 °F 84% 30.05 in 10.0 mi NE 4.6 mph - N/A   Scattered Clouds
4:36 PM -4.0 °F -14.6 °F -9.4 °F 78% 30.04 in 10.0 mi ENE 4.6 mph - N/A   Scattered Clouds
4:56 PM -2.2 °F -10.4 °F -9.4 °F 71% 30.04 in 10.0 mi NE 3.5 mph - N/A   Scattered Clouds
5:16 PM -2.2 °F -10.4 °F -9.4 °F 71% 30.05 in 10.0 mi NE 3.5 mph - N/A   Scattered Clouds
5:36 PM -2.2 °F -12.5 °F -7.6 °F 78% 30.04 in 10.0 mi NE 4.6 mph - N/A   Scattered Clouds
5:56 PM -2.2 °F -12.5 °F -7.6 °F 78% 30.03 in 10.0 mi NNE 4.6 mph - N/A   Overcast
6:16 PM -0.4 °F - -5.8 °F 78% 30.04 in 10.0 mi Calm Calm - N/A   Overcast
6:36 PM -0.4 °F -10.4 °F -5.8 °F 78% 30.04 in 10.0 mi NNE 4.6 mph - N/A   Overcast
6:56 PM -0.4 °F -10.4 °F -5.8 °F 78% 30.04 in 10.0 mi NNE 4.6 mph - N/A   Overcast
7:16 PM 1.4 °F - -2.2 °F 85% 30.04 in 10.0 mi Calm Calm - N/A   Overcast
7:36 PM 1.4 °F - -2.2 °F 85% 30.04 in 10.0 mi Calm Calm - N/A   Overcast
7:56 PM 1.4 °F - -2.2 °F 85% 30.05 in 10.0 mi Calm Calm - N/A   Overcast
8:16 PM 3.2 °F - -2.2 °F 78% 30.04 in 10.0 mi Calm Calm - N/A   Overcast
8:56 PM 3.2 °F - -2.2 °F 78% 30.04 in 10.0 mi Calm Calm - N/A   Overcast
9:16 PM 3.2 °F -6.2 °F -2.2 °F 78% 30.05 in 10.0 mi West 4.6 mph - N/A   Overcast
9:36 PM 3.2 °F -6.2 °F -2.2 °F 78% 30.05 in 6.0 mi West 4.6 mph - N/A   Overcast
9:56 PM 1.4 °F -6.2 °F -4.0 °F 78% 30.05 in 4.0 mi West 3.5 mph - N/A   Overcast
10:16 PM 1.4 °F -6.2 °F -2.2 °F 85% 30.05 in 4.0 mi WSW 3.5 mph - N/A   Overcast
10:36 PM 1.4 °F -6.2 °F -2.2 °F 85% 30.06 in 2.5 mi SW 3.5 mph - N/A   Overcast
10:56 PM 1.4 °F - -4.0 °F 78% 30.06 in 2.0 mi Calm Calm - N/A   Overcast
11:16 PM 1.4 °F -8.3 °F -4.0 °F 78% 30.06 in 1.8 mi WSW 4.6 mph - N/A   Overcast
11:56 PM 1.4 °F -6.2 °F -4.0 °F 78% 30.06 in 3.0 mi WSW 3.5 mph - N/A   Overcast